Regional Weather Roundup
Issued by NWS

Home | Current Version | Previous Version | Graphics & Text | Print | Product List | Glossary Off
Versions: 1 2 3 4 5 6 7 8 9 10 11 12 13 14 15 16 17 18 19 20 21 22 23 24 25 26 27 28 29 30 31 32 33 34 35 36 37 38 39 40 41 42 43 44 45 46 47 48 49 50

000
ASUS43 KFSD 291310
RWRSD

WEATHER ROUNDUP FOR SOUTH DAKOTA
NATIONAL WEATHER SERVICE SIOUX FALLS SD
700 AM CST MON DEC 29 2014

NOTE: "FAIR" INDICATES FEW OR NO CLOUDS BELOW 12,000 FEET WITH NO
SIGNIFICANT WEATHER AND/OR OBSTRUCTIONS TO VISIBILITY.


SDZ001>005-009-010-012>017-291400-
NORTHWEST AND NORTH CENTRAL SOUTH DAKOTA

CITY           SKY/WX    TMP DP  RH WIND       PRES   REMARKS
BUFFALO          N/A      2  -3  80 NE12      30.37R WCI -15
FAITH            N/A      1  -5  75 N15       30.46R WCI -18
MOBRIDGE       CLOUDY     1  -6  72 N9        30.53R WCI -14
$$

SDZ012>016-024>037-041>051-057-063-072>074-291400-
SOUTHWEST AND SOUTH CENTRAL SOUTH DAKOTA

CITY           SKY/WX    TMP DP  RH WIND       PRES   REMARKS
RAPID CTY ARPT LGT SNOW   3   0  87 N14       30.37R FOG     WCI -15
PIERRE         LGT SNOW   4  -2  76 NE16      30.50R WCI -15
CUSTER         LGT SNOW   5   2  87 E5        30.12R FOG     WCI  -4
ELLSWORTH AFB  FLURRIES   4   0  84 N8        30.37R WCI -10
PHILIP         FLURRIES   6   1  80 N14       30.46R WCI -11
PINE RIDGE     LGT SNOW   7   1  76 NE7       30.31R WCI  -5
SPEARFISH      FLURRIES   0  -2  92 MISG      30.35R
WINNER         MIX PCPN   6   1  80 N12       30.43R WCI  -9
$$

SDZ004>011-016>023-039-040-291400-
NORTHEAST SOUTH DAKOTA

CITY           SKY/WX    TMP DP  RH WIND       PRES   REMARKS
ABERDEEN       CLOUDY     0  -7  72 N16       30.58R WCI -20
WATERTOWN      CLOUDY    -2  -8  76 N10       30.47R WCI -19
SISSETON         N/A     -4  -9  79 N15       30.58R WCI -25
$$

SDZ017-020-022-023-036>040-048>070-291400-
SOUTHEAST SOUTH DAKOTA

CITY           SKY/WX    TMP DP  RH WIND       PRES   REMARKS
SIOUX FALLS    MOCLDY     5   0  79 NE14      30.44R WCI -12
HURON          CLOUDY     2  -3  80 N17       30.52R WCI -18
CHAMBERLAIN    FLURRIES   4  -2  77 N12G17    30.48R WCI -12
MITCHELL       CLOUDY     7   1  76 N13       30.50R WCI  -9
YANKTON        PTCLDY    12   9  85 N10       30.45R WCI  -1
$$

ABBREVIATIONS USED IN REMARKS
   TC - TEMPERATURE IN CELSIUS
  WCI - WIND CHILL INDEX
   HX - HEAT INDEX
  VSB - VISIBILITY




USA.gov is the U.S. government's official web portal to all federal, state and local government web resources and services.